This demonstration page uses our WeatherBlox Daily Observations layout. Learn more.

Left ArrowRight Arrow

38.88101, -77.10428

Hourly Observations for November 12, 2018

Temp ( °F °C ) Dew Point ( °F °C ) Humidity (%) Winds ( mph kmh ) Pressure ( in mb ) Visibility ( mi km ) Precip ( " mm )
12:52 am 00:52 Mostly Cloudy 36 2.2 29 -1.7 76 76 SW 5 7 30.39 1029 10 16.0934 0 0
1:52 am 01:52 Partly Cloudy 37 2.8 29 -1.7 73 73 Calm 30.4 1029 10 16.0934 0 0
2:52 am 02:52 Cloudy 38 3.3 31 -0.6 76 76 Calm 30.4 1029 10 16.0934 0 0
3:52 am 03:52 Cloudy 38 3.3 32 0 79 79 Calm 30.4 1029 10 16.0934 0 0
4:52 am 04:52 Cloudy 38 3.3 32 0 79 79 Calm 30.42 1030 10 16.0934 0 0
5:52 am 05:52 Cloudy 39 3.9 33 0.6 79 79 Calm 30.42 1030 10 16.0934 0 0
6:52 am 06:52 Cloudy 40 4.4 34 1.1 79 79 Calm 30.42 1030 10 16.0934 0 0
7:52 am 07:52 Cloudy 40 4.4 35 1.7 83 83 S 5 7 30.42 1030 10 16.0934 0 0
8:52 am 08:52 Cloudy 42 5.6 36 2.2 79 79 S 6 9 30.42 1030 10 16.0934 0 0
9:31 am 09:31 Cloudy 43 6.1 36 2.2 76 76 S 5 7 30.45 1031 10 16.0934 0 0
9:52 am 09:52 Cloudy 44 6.7 36 2.2 73 73 Calm 30.43 1031 10 16.0934 0 0
10:52 am 10:52 Cloudy 46 7.8 35 1.7 66 66 SSE 3 6 30.42 1030 10 16.0934 0 0
11:52 am 11:52 Cloudy 47 8.3 33 0.6 59 59 SSW 6 9 30.39 1029 10 16.0934 0 0
12:24 pm 12:24 Cloudy 49 9.4 34 1.1 56 56 S 7 11 30.36 1028 10 16.0934 0 0
12:52 pm 12:52 Cloudy 49 9.4 34 1.1 56 56 S 7 11 30.36 1028 10 16.0934 0 0
1:52 pm 13:52 Cloudy 50 10 36 2.2 59 59 SSE 6 9 30.34 1027 10 16.0934 0 0
2:52 pm 14:52 Cloudy 50 10 36 2.2 59 59 SSW 5 7 30.33 1027 10 16.0934 0 0
3:52 pm 15:52 Cloudy 50 10 37 2.8 61 61 SSW 5 7 30.35 1028 10 16.0934 0 0
4:52 pm 16:52 Cloudy with Light Rain 50 10 37 2.8 61 61 Calm 30.34 1027 10 16.0934 0 0.0254
5:52 pm 17:52 Cloudy with Light Rain 47 8.3 41 5 80 80 ESE 6 9 30.32 1027 8 12.87472 0.04 1.016
6:52 pm 18:52 Cloudy with Rain 46 7.8 41 5 83 83 ESE 7 11 30.32 1027 6 9.65604 0.12 3.048
7:17 pm 19:17 Cloudy with Light Rain 46 7.8 42 5.6 86 86 Calm 30.33 1027 8 12.87472 0.03 0.762
7:52 pm 19:52 Cloudy with Light Rain 45 7.2 42 5.6 90 90 ESE 3 6 30.3 1026 6 9.65604 0.09 2.286
8:52 pm 20:52 Cloudy with Light Rain 45 7.2 41 5 86 86 ENE 5 7 30.27 1025 9 14.48406 0.04 1.016
9:17 pm 21:17 Cloudy with Rain 45 7.2 41 5 86 86 NE 3 6 30.27 1025 8 12.87472 0.03 0.762
9:46 pm 21:46 Cloudy with Rain 45 7 41 5 87 87 NNE 3 6 30.27 1025 7 11.26538 0.07 1.778
9:52 pm 21:52 Cloudy with Light Rain 45 7.2 41 5 86 86 NNE 5 7 30.26 1025 7 11.26538 0.07 1.778
10:05 pm 22:05 Cloudy with Rain 45 7.2 41 5 86 86 NE 6 9 30.27 1025 4 6.43736 0.03 0.762
10:07 pm 22:07 Cloudy with Rain 45 7.2 41 5 86 86 NE 7 11 30.27 1025 4 6.43736 0.04 1.016
10:24 pm 22:24 Cloudy with Rain 45 7.2 42 5.6 90 90 NNE 5 7 30.24 1024 4 6.43736 0.08 2.032
10:37 pm 22:37 Cloudy with Rain 45 7.2 42 5.6 90 90 NE 6 9 30.24 1024 4 6.43736 0.1 2.54
10:40 pm 22:40 Cloudy with Rain 45 7.2 42 5.6 90 90 NNE 6 9 30.24 1024 4 6.43736 0.11 2.794
10:52 pm 22:52 Cloudy with Rain 45 7.2 42 5.6 90 90 NNE 6 9 30.24 1024 4 6.43736 0.13 3.302
11:05 pm 23:05 Cloudy with Rain 45 7.2 41 5 86 86 NE 7 11 30.21 1023 4 6.43736 0.02 0.508
11:17 pm 23:17 Cloudy with Rain 45 7.2 42 5.6 90 90 NE 9 15 30.21 1023 4 6.43736 0.05 1.27
11:52 pm 23:52 Cloudy with Light Rain 45 7.2 42 5.6 90 90 NNE 8 13 30.19 1022 4 6.43736 0.1 2.54

Powered by AerisWeather